Weather History for Punta Gorda, FL

Change the Weather History Date:

Monday, December 31, 2012

  Actual Average Record
Temperature  
Mean Temperature 60 °F -  
Max Temperature 77 °F 71 °F 84 °F (1996)
Min Temperature 44 °F 48 °F 30 °F (2000)
Degree Days  
Heating Degree Days 4    
Growing Degree Days 10 (Base 50)    
Moisture  
Dew Point 50 °F    
Average Humidity 74    
Maximum Humidity 97    
Minimum Humidity 45    
Precipitation  
Precipitation 0.00 in - - ()
Sea Level Pressure  
Sea Level Pressure 30.28 in    
Wind  
Wind Speed 6 mph (ENE)    
Max Wind Speed 16 mph    
Max Gust Speed 22 mph    
Visibility 9 miles    
Events      
Averages and records for this station are not official NWS values.
T = Trace of Precipitation, MM = Missing Value Source: NWS Daily Summary

Daily Weather History Graph

Daily Weather History Graph

Search for Another Location

Airport:

Trip Planner

Search our weather history database for the weather conditions in past years. The results will help you decide how hot, cold, wet, or windy it might be!

Date:

Astronomy

Dec. 31, 2012 Rise Set
Actual Time 7:16 AM EST 5:45 PM EST
Civil Twilight 6:51 AM EST 6:11 PM EST
Nautical Twilight 6:22 AM EST 6:40 PM EST
Astronomical Twilight 5:54 AM EST 7:08 PM EST
Moon 8:55 PM EST (12/31) 9:15 AM EST (12/31)
Length of Visible Light 11h 19m
Length of Day
10h 28m
Waning Gibbous, 90% of the Moon is Illuminated
Dec 31
Waning Gibbous
Jan 4
Last Quarter
Jan 11
New
Jan 18
First Quarter
Jan 26
Full

Hourly Weather History & Observations

Time (EST) Temp. Windchill Dew Point Humidity Pressure Visibility Wind Dir Wind Speed Gust Speed Precip Events Conditions
12:53 AM 46.0 °F 43.1 °F 44.1 °F 93% 30.33 in 10.0 mi NNE 5.8 mph - N/A   Clear
1:53 AM 46.0 °F 43.9 °F 44.1 °F 93% 30.33 in 10.0 mi NNE 4.6 mph - N/A   Clear
2:53 AM 45.0 °F 43.5 °F 44.1 °F 97% 30.32 in 10.0 mi NNE 3.5 mph - N/A   Clear
3:53 AM 45.0 °F 42.6 °F 43.0 °F 93% 30.31 in 9.0 mi NNE 4.6 mph - N/A   Clear
4:53 AM 44.1 °F 40.8 °F 42.1 °F 93% 30.30 in 7.0 mi NE 5.8 mph - N/A   Clear
5:53 AM 45.0 °F 41.8 °F 43.0 °F 93% 30.30 in 8.0 mi NNE 5.8 mph - N/A   Clear
6:53 AM 44.1 °F 40.8 °F 43.0 °F 96% 30.31 in 8.0 mi NE 5.8 mph - N/A   Clear
7:53 AM 46.9 °F - 45.0 °F 93% 30.32 in 7.0 mi NE 8.1 mph - N/A   Clear
8:53 AM 53.1 °F - 48.9 °F 86% 30.33 in 10.0 mi ENE 6.9 mph - N/A   Clear
9:53 AM 62.1 °F - 52.0 °F 70% 30.35 in 10.0 mi ENE 4.6 mph - N/A   Clear
10:53 AM 70.0 °F - 54.0 °F 57% 30.34 in 10.0 mi ESE 16.1 mph 21.9 mph N/A   Clear
11:53 AM 73.0 °F - 54.0 °F 51% 30.31 in 10.0 mi ESE 11.5 mph 19.6 mph N/A   Clear
12:53 PM 75.0 °F - 54.0 °F 48% 30.27 in 10.0 mi ESE 11.5 mph 20.7 mph N/A   Clear
1:53 PM 75.9 °F - 54.0 °F 46% 30.25 in 10.0 mi ESE 10.4 mph - N/A   Clear
2:53 PM 77.0 °F - 54.0 °F 45% 30.21 in 10.0 mi ESE 9.2 mph - N/A   Clear
3:53 PM 77.0 °F - 54.0 °F 45% 30.20 in 10.0 mi SE 9.2 mph - N/A   Clear
4:53 PM 75.0 °F - 54.0 °F 48% 30.20 in 10.0 mi SE 9.2 mph - N/A   Clear
5:53 PM 69.1 °F - 55.0 °F 61% 30.21 in 10.0 mi ESE 5.8 mph - N/A   Clear
6:53 PM 66.9 °F - 55.9 °F 68% 30.22 in 10.0 mi Calm Calm - N/A   Mostly Cloudy
7:53 PM 66.9 °F - 57.0 °F 70% 30.23 in 10.0 mi Calm Calm - N/A   Mostly Cloudy
8:53 PM 62.1 °F - 55.0 °F 78% 30.24 in 10.0 mi NE 3.5 mph - N/A   Clear
10:53 PM 54.0 °F - 52.0 °F 93% 30.25 in 8.0 mi East 3.5 mph - N/A   Clear
11:53 PM 53.1 °F - 52.0 °F 96% 30.25 in 3.0 mi Calm Calm - N/A   Partly Cloudy